Location: Bishopstone
(51.0167°N, 1.9000°W)
Time: 18:32:22
(UTC+00:00)

USA 234 - Pass Details

Date: 16 September 2019
Orbit: 1103 x 1105 km, 123.0° (Epoch: 17 October)

Event Time Altitude Azimuth Distance (km) Brightness Sun altitude
Exits shadow 23:29:32 35° 283° (WNW) 1,698 4.3 -36.1°
Drops below altitude 10° 23:33:15 10° 299° (WNW) 2,968 5.9 -36.2°
Sets 23:35:48 0° 303° (WNW) 3,928 6.6 -36.2°
